Regional Weather Roundup
Issued by NWS

Home | Current Version | Previous Version | Graphics & Text | Print | Product List | Glossary On
Versions: 1 2 3 4 5 6 7 8 9 10 11 12 13 14 15 16 17 18 19 20 21 22 23 24 25 26 27 28 29 30 31 32 33 34 35 36 37 38 39 40 41 42 43 44 45 46 47 48 49 50
322
ASUS43 KIND 280109
RWRIN

WEATHER ROUNDUP FOR INDIANA
NATIONAL WEATHER SERVICE INDIANAPOLIS IN
900 PM EDT THU JUL 27 2017

NOTE: "FAIR" INDICATES FEW OR NO CLOUDS BELOW 12,000 FEET WITH NO
SIGNIFICANT WEATHER AND/OR OBSTRUCTIONS TO VISIBILITY.

* - STATION DOES NOT REPORT WEATHER SUCH AS PRECIPITATION OR FOG.

+ - STATION NOT QUALITY CONTROLLED BY THE NATIONAL WEATHER SERVICE.
    USE DATA WITH CAUTION...ESPECIALLY DEWPOINT AND RELATIVE
    HUMIDITY OBSERVATIONS.

INZ001>003-010>013-019-020-280200-
NORTHWEST INDIANA

CITY           SKY/WX    TMP DP  RH WIND       PRES   REMARKS
GARY /AIRPORT/ PTCLDY    73  66  78 N14       29.94S
KNOX *+        PTCLDY    72  68  88 N9        29.90S
LA PORTE +     CLEAR     73  66  80 N12G17    29.92F
MICHIGAN CITY+ CLEAR     72  66  83 N8        29.93S
MONTICELLO +   MOCLDY    76  72  87 N9        29.88S
RENSSELAER +   PTCLDY    72  68  88 N6        29.91S
VALPARAISO     CLEAR     73  68  84 N9        29.92S

$$

LMZ046-743>745-280200-
SOUTHERN LAKE MICHIGAN

STATION/POSITION TIME  TEMP    WIND        PRES    WAVE
                       AIR SEA DIR/SP/G            HT
                 (UTC) (F)     (DEG/KT/KT) (MB)    (FT)
BURNS HARBOR     0040   73      10/ 16/ 20 1013.9R
MICHIGAN CITY    0040   73     360/ 17/ 19   N/A
5NW MICH CITY    0100   73 74   10/ 16/ 19   N/A     7

$$

INZ004-005-014>016-021>024-280200-
NORTH CENTRAL INDIANA

CITY           SKY/WX    TMP DP  RH WIND       PRES   REMARKS
ELKHART        PTCLDY    81  68  65 N6        29.90R
GOSHEN         CLOUDY    80  68  66 N7        29.89R
LOGANSPORT +   PTCLDY    75  70  83 N7        29.89R
PERU/GRISSOM   CLOUDY    79  72  77 N5        29.87S
ROCHESTER +    PTCLDY    79  73  83 N3        29.89S
SOUTH BEND     CLOUDY    75  66  73 N12       29.91R
WARSAW +       CLOUDY    75  72  88 NW3       29.89S

$$

INZ006>009-017-018-025>027-280200-
NORTHEAST INDIANA

CITY           SKY/WX    TMP DP  RH WIND       PRES   REMARKS
AUBURN +       CLEAR     77  70  78 CALM      29.90R
FORT WAYNE     PTCLDY    76  70  82 NE7       29.89R
HUNTINGTON +   MOCLDY    76  73  89 CALM      29.88R
KENDALLVILLE + MOCLDY    76  72  88 CALM      29.90R FOG

$$

INZ028-029-035-036-043>045-051>053-280200-
WEST CENTRAL INDIANA

CITY           SKY/WX    TMP DP  RH WIND       PRES   REMARKS
GREENCASTLE +  CLOUDY    75  72  88 CALM      29.88S
LAFAYETTE      MOCLDY    76  72  87 N9        29.87S
TERRE HAUTE    CLOUDY    77  74  90 CALM      29.87S

$$

INZ030>032-037>040-046>048-054>057-064-065-280200-
CENTRAL INDIANA

CITY           SKY/WX    TMP DP  RH WIND       PRES   REMARKS
CP ATTERBURY + CLOUDY    77  70  78 NW3       29.88S
COLUMBUS       CLOUDY    77  72  83 CALM      29.88S
FRANKFORT +    CLOUDY    80  74  83 N6        29.90S
INDIANAPOLIS   MOCLDY    77  72  84 W6        29.87S
-EAGLE CREEK   CLOUDY    78  72  81 VRB5      29.87R
KOKOMO +       CLOUDY    79  73  82 N6        29.89S
MARION +       CLOUDY    77  72  83 CALM      29.89S
MT COMFORT *+  CLOUDY    73  72  94 CALM      29.89S
SHELBYVILLE    CLOUDY    77  72  84 NE7       29.87S
ZIONSVILLE +   CLOUDY    76  74  94 CALM      29.89S

$$

INZ033-034-041-042-049-050-058-059-280200-
EAST CENTRAL INDIANA

CITY           SKY/WX    TMP DP  RH WIND       PRES   REMARKS
MUNCIE         CLOUDY    78  73  84 SW3       29.88S
RICHMOND +     CLOUDY    72  72 100 SW3       29.91S

$$

INZ060-061-067>069-081>083-085>088-280200-
SOUTHWEST INDIANA

CITY           SKY/WX    TMP DP  RH WIND       PRES   REMARKS
EVANSVILLE     PTCLDY    81  75  82 S7        29.86F
HUNTINGBURG *+   N/A     80  76  87 SW5       29.87F

$$

INZ062-063-066-070>080-084-089>092-280200-
SOUTH CENTRAL AND SOUTHEAST INDIANA

CITY           SKY/WX    TMP DP  RH WIND       PRES   REMARKS
BEDFORD +      CLOUDY    77  72  83 NW5       29.87
BLOOMINGTON    CLOUDY    77  73  87 CALM      29.87F
MADISON *+     CLOUDY    77  73  88 CALM      29.90S
NORTH VERNON + CLOUDY    75  72  88 CALM      29.89S
SEYMOUR +      CLOUDY    81  72  74 N5        29.86F

$$





USA.gov is the U.S. government's official web portal to all federal, state and local government web resources and services.